Location: Archamps
(46.1365°N, 6.1329°E)
Time: 13:47:10
(UTC+00:00)

FENGYUN 1C DEB - Visible Passes

Search period start: 23 February 2024 00:00
Search period end: 04 March 2024 00:00
Orbit: 800 x 911 km, 99.1° (Epoch: 19 January)

Date Brightness Start Highest point End Pass type
(mag) Time Alt. Az. Time Alt. Az. Time Alt. Az.
23 Feb ? 01:49:47 10° NE 01:49:58 11° NE 01:49:58 11° NE visible
23 Feb ? 03:30:13 10° N 03:32:02 21° N 03:32:02 21° N visible
24 Feb ? 03:19:17 10° N 03:21:12 22° N 03:21:12 22° N visible
25 Feb ? 03:08:22 10° N 03:10:20 23° N 03:10:20 23° N visible
25 Feb ? 04:51:59 10° NW 04:52:25 10° NW 04:52:25 10° NW visible
26 Feb ? 02:57:27 10° NNE 02:59:27 24° N 02:59:27 24° N visible
26 Feb ? 04:40:12 10° NNW 04:41:32 13° NW 04:41:32 13° NW visible
27 Feb ? 02:46:34 10° NNE 02:48:34 24° NNE 02:48:34 24° NNE visible
27 Feb ? 04:28:47 10° NNW 04:30:39 15° NW 04:30:39 15° NW visible
28 Feb ? 02:35:42 10° NNE 02:37:40 23° NNE 02:37:40 23° NNE visible
28 Feb ? 04:17:31 10° NNW 04:19:45 18° NW 04:19:45 18° NW visible
29 Feb ? 02:24:51 10° NNE 02:26:46 22° NNE 02:26:46 22° NNE visible
29 Feb ? 04:06:19 10° N 04:08:50 20° NW 04:08:50 20° NW visible
01 Mar ? 02:14:01 10° NNE 02:15:51 21° NE 02:15:51 21° NE visible
01 Mar ? 03:55:10 10° N 03:57:56 24° NNW 03:57:56 24° NNW visible
02 Mar ? 02:03:14 10° NNE 02:04:55 19° NE 02:04:55 19° NE visible
02 Mar ? 03:44:04 10° N 03:47:00 27° NNW 03:47:00 27° NNW visible
03 Mar ? 01:52:29 10° NE 01:53:58 17° NE 01:53:58 17° NE visible
03 Mar ? 03:32:57 10° N 03:36:03 31° NNW 03:36:03 31° NNW visible
